User: anonymous   Login
Location: Unspecified
(37.2075°N, 0.0000°E)
Time: 02:35:27
(UTC+00:00)
Language:

Cosmos 2333 Rocket - Orbit

View from above orbital plane
View from above orbital plane
View from above satellite
View from above satellite

Ground track
Ground track

The orbit is defined by the following mean orbital elements,

1 24298U          26088.21687279 +.00000000 +00000-0 +89820-4 0 00005
2 24298  70.7585 133.9094 0013491 116.4863 243.7642 14.12421249    03
Epoch (UTC): 29 March 2026 05:12:17
Eccentricity: 0.0013491
inclination: 70.7585°
perigee height: 841 km
apogee height: 861 km
right ascension of ascending node: 133.9094°
argument of perigee: 116.4863°
revolutions per day: 14.12421249
mean anomaly at epoch: 243.7642°

The dashed part of the orbit path shows where the satellite is in the earth's shadow,  

DLR